Location: Moscow
(55.7500°N, 37.5830°E)
Time: 17:22:03
(UTC+03:00)

Vanguard 2 Rocket - Pass Details

Date: 03 December 2021
Orbit: 553 x 3325 km, 32.9° (Epoch: 23 January)

Event Time Altitude Azimuth Distance (km) Brightness Sun altitude
Rises 19:35:35 0° 217° (SW) 3,770 10.5 -28.8°
Reaches altitude 10° 19:39:10 10° 195° (SSW) 3,226 9.8 -29.3°
Maximum altitude 19:43:46 16° 161° (SSE) 3,303 9.5 -29.9°
Enters shadow 19:43:46 16° 161° (SSE) 3,303 9.5 -30.0°
